Location: Newark
(50.4348°N, 30.5552°E)
Time: 12:44:41
(UTC+00:00)

Envisat - Pass Details

Date: 14 December 2019
Orbit: 764 x 766 km, 98.1° (Epoch: 18 January)

Event Time Altitude Azimuth Distance (km) Brightness Sun altitude
Rises 15:08:43 0° 148° (SSE) 3,224 6.1 -11.1°
Reaches altitude 10° 15:11:04 10° 143° (SE) 2,301 5.3 -11.5°
Maximum altitude 15:15:58 51° 68° (ENE) 965 3.1 -12.2°
Drops below altitude 10° 15:20:53 10° 354° (N) 2,317 5.3 -12.9°
Sets 15:23:15 0° 350° (N) 3,247 6.1 -13.3°
